Wetterdaten: aktuell Montag, 25.10.2021 09:58
Datum Zeit Temp. I. Temp. 2m Temp. 5cm Temp. Gr 2m LF I. Luftf.2m LG Graben Luftdruck Regen Wind Richtung Richtung Taupunkt Windchill Windben
25.10.2021 09:58 25,9 C 3,4 C 5,2 C -2,6 C 37 % 86 % 88 % 1025,5 hPa 0,0 l/m 0,0 km/h (0 Bft) S-SW 202 1,3 C 3,4 C 0,0 km/h (0 Bft)
25.10.2021 09:56 25,9 C 3,4 C 4,6 C -2,8 C 37 % 87 % 88 % 1025,5 hPa 0,0 l/m 0,0 km/h (0 Bft) S 180 1,4 C 3,4 C 0,0 km/h (0 Bft)
25.10.2021 09:54 25,9 C 3,1 C 4,0 C -3,0 C 37 % 87 % 88 % 1025,5 hPa 0,0 l/m 0,0 km/h (0 Bft) W 270 1,2 C 3,1 C 0,0 km/h (0 Bft)
25.10.2021 09:52 25,9 C 3,1 C 3,7 C -3,0 C 37 % 87 % 88 % 1025,5 hPa 0,0 l/m 0,2 km/h (0 Bft) N-NW 337 1,2 C 3,1 C 0,0 km/h (0 Bft)
25.10.2021 09:50 25,9 C 2,8 C 3,2 C -3,1 C 37 % 87 % 88 % 1025,5 hPa 0,0 l/m 0,2 km/h (0 Bft) W-NW 292 0,9 C 2,8 C 0,0 km/h (0 Bft)
25.10.2021 09:48 25,9 C 2,7 C 3,0 C -3,2 C 37 % 87 % 88 % 1025,5 hPa 0,0 l/m 0,2 km/h (0 Bft) N-NW 337 0,8 C 2,7 C 0,0 km/h (0 Bft)
25.10.2021 09:46 25,9 C 2,5 C 2,5 C -3,4 C 37 % 87 % 88 % 1025,5 hPa 0,0 l/m 0,2 km/h (0 Bft) NW 315 0,6 C 2,5 C 0,0 km/h (0 Bft)
25.10.2021 09:44 25,8 C 2,5 C 2,4 C -3,4 C 37 % 87 % 88 % 1025,5 hPa 0,0 l/m 0,2 km/h (0 Bft) N-NW 337 0,6 C 2,5 C 0,0 km/h (0 Bft)
25.10.2021 09:42 25,9 C 2,2 C 2,2 C -3,5 C 37 % 87 % 88 % 1025,5 hPa 0,0 l/m 0,0 km/h (0 Bft) N 360 0,3 C 2,2 C 0,0 km/h (0 Bft)
25.10.2021 09:40 25,9 C 2,1 C 2,1 C -3,6 C 37 % 87 % 88 % 1025,1 hPa 0,0 l/m 0,0 km/h (0 Bft) N-NW 337 0,2 C 2,1 C 0,0 km/h (0 Bft)
25.10.2021 09:38 25,8 C 2,0 C 1,8 C -3,8 C 37 % 87 % 88 % 1025,1 hPa 0,0 l/m 0,0 km/h (0 Bft) N 360 0,1 C 2,0 C 0,0 km/h (0 Bft)
25.10.2021 09:36 25,8 C 2,0 C 1,7 C -3,8 C 37 % 87 % 88 % 1025,1 hPa 0,0 l/m 0,2 km/h (0 Bft) O-SO 112 0,1 C 2,0 C 0,0 km/h (0 Bft)
25.10.2021 09:34 25,8 C 2,1 C 1,7 C -3,9 C 37 % 88 % 88 % 1025,1 hPa 0,0 l/m 0,2 km/h (0 Bft) N 360 0,3 C 2,1 C 0,0 km/h (0 Bft)
25.10.2021 09:32 25,8 C 2,4 C 1,8 C -3,9 C 37 % 88 % 88 % 1025,1 hPa 0,0 l/m 0,2 km/h (0 Bft) SW 225 0,6 C 2,4 C 0,0 km/h (0 Bft)
25.10.2021 09:30 25,8 C 2,4 C 1,7 C -4,0 C 37 % 88 % 88 % 1025,1 hPa 0,0 l/m 0,2 km/h (0 Bft) W-SW 247 0,6 C 2,4 C 0,0 km/h (0 Bft)
25.10.2021 09:28 25,8 C 2,7 C 1,6 C -4,0 C 37 % 89 % 88 % 1025,1 hPa 0,0 l/m 0,2 km/h (0 Bft) N-NW 337 1,1 C 2,7 C 2,9 km/h (1 Bft)
25.10.2021 09:26 25,8 C 3,1 C 1,6 C -4,2 C 37 % 88 % 88 % 1025,1 hPa 0,0 l/m 0,0 km/h (0 Bft) W-NW 292 1,3 C 3,1 C 2,9 km/h (1 Bft)
25.10.2021 09:24 25,8 C 3,3 C 1,5 C -4,2 C 37 % 88 % 88 % 1025,1 hPa 0,0 l/m 0,0 km/h (0 Bft) NW 315 1,5 C 3,3 C 0,0 km/h (0 Bft)
25.10.2021 09:22 25,8 C 3,2 C 1,0 C -4,2 C 37 % 88 % 88 % 1025,1 hPa 0,0 l/m 0,0 km/h (0 Bft) NW 315 1,4 C 3,2 C 0,0 km/h (0 Bft)
25.10.2021 09:20 25,8 C 3,2 C 0,9 C -4,3 C 37 % 88 % 87 % 1025,1 hPa 0,0 l/m 0,0 km/h (0 Bft) W-SW 247 1,4 C 3,2 C 0,0 km/h (0 Bft)
25.10.2021 09:18 25,8 C 3,1 C 0,7 C -4,3 C 37 % 88 % 87 % 1025,1 hPa 0,0 l/m 0,0 km/h (0 Bft) W 270 1,3 C 3,1 C 0,0 km/h (0 Bft)
25.10.2021 09:16 25,8 C 2,9 C 0,7 C -4,3 C 37 % 89 % 87 % 1025,1 hPa 0,0 l/m 0,0 km/h (0 Bft) NW 315 1,3 C 2,9 C 0,0 km/h (0 Bft)
25.10.2021 09:14 25,7 C 2,7 C 0,5 C -4,3 C 37 % 89 % 87 % 1025,1 hPa 0,0 l/m 0,0 km/h (0 Bft) W 270 1,1 C 2,7 C 0,0 km/h (0 Bft)
25.10.2021 09:12 25,7 C 2,5 C 0,5 C -4,3 C 37 % 89 % 87 % 1025,1 hPa 0,0 l/m 0,0 km/h (0 Bft) W 270 0,9 C 2,5 C 0,0 km/h (0 Bft)
25.10.2021 09:10 25,8 C 2,1 C 0,5 C -4,3 C 37 % 89 % 87 % 1025,1 hPa 0,0 l/m 0,0 km/h (0 Bft) W 270 0,5 C 2,1 C 0,0 km/h (0 Bft)
25.10.2021 09:08 25,8 C 1,9 C 0,5 C -4,4 C 37 % 89 % 87 % 1025,1 hPa 0,0 l/m 0,0 km/h (0 Bft) W 270 0,3 C 1,9 C 0,0 km/h (0 Bft)
25.10.2021 09:06 25,7 C 1,8 C 0,5 C -4,4 C 37 % 89 % 87 % 1025,1 hPa 0,0 l/m 0,0 km/h (0 Bft) W 270 0,2 C 1,8 C 0,0 km/h (0 Bft)
25.10.2021 09:04 25,7 C 1,7 C 0,5 C -4,4 C 37 % 90 % 87 % 1025,1 hPa 0,0 l/m 0,0 km/h (0 Bft) W 270 0,2 C 1,7 C 0,0 km/h (0 Bft)
25.10.2021 09:02 25,7 C 1,3 C 0,5 C -4,4 C 37 % 89 % 87 % 1025,1 hPa 0,0 l/m 0,0 km/h (0 Bft) W 270 -0,3 C 1,3 C 0,0 km/h (0 Bft)
25.10.2021 09:00 25,7 C 1,2 C 0,7 C -4,4 C 37 % 89 % 87 % 1024,9 hPa 0,0 l/m 0,0 km/h (0 Bft) W 270 -0,4 C 1,2 C 0,0 km/h (0 Bft)
25.10.2021 08:58 25,7 C 1,1 C 0,7 C -4,4 C 37 % 89 % 87 % 1024,9 hPa 0,0 l/m 0,0 km/h (0 Bft) W 270 -0,5 C 1,1 C 0,0 km/h (0 Bft)
25.10.2021 08:56 25,7 C 0,8 C 0,7 C -4,4 C 37 % 89 % 87 % 1024,9 hPa 0,0 l/m 0,0 km/h (0 Bft) W 270 -0,8 C 0,8 C 0,0 km/h (0 Bft)
25.10.2021 08:54 25,7 C 1,0 C 0,6 C -4,6 C 37 % 89 % 87 % 1024,9 hPa 0,0 l/m 0,0 km/h (0 Bft) W 270 -0,6 C 1,0 C 0,0 km/h (0 Bft)
25.10.2021 08:52 25,7 C 0,8 C 0,6 C -4,7 C 36 % 89 % 87 % 1024,9 hPa 0,0 l/m 0,0 km/h (0 Bft) W 270 -0,8 C 0,8 C 0,0 km/h (0 Bft)
25.10.2021 08:50 25,7 C 0,7 C 0,5 C -4,7 C 36 % 89 % 87 % 1024,9 hPa 0,0 l/m 0,0 km/h (0 Bft) W 270 -0,9 C 0,7 C 0,0 km/h (0 Bft)
25.10.2021 08:48 25,7 C 0,5 C 0,3 C -4,7 C 36 % 89 % 87 % 1024,9 hPa 0,0 l/m 0,0 km/h (0 Bft) W 270 -1,1 C 0,5 C 0,0 km/h (0 Bft)
25.10.2021 08:46 25,7 C 0,4 C 0,2 C -4,8 C 36 % 89 % 87 % 1024,9 hPa 0,0 l/m 0,0 km/h (0 Bft) W 270 -1,2 C 0,4 C 0,0 km/h (0 Bft)
25.10.2021 08:44 25,7 C 0,2 C 0,2 C -4,8 C 36 % 89 % 87 % 1024,9 hPa 0,0 l/m 0,0 km/h (0 Bft) W 270 -1,4 C 0,2 C 0,0 km/h (0 Bft)
25.10.2021 08:42 25,7 C 0,0 C 0,1 C -4,8 C 36 % 89 % 87 % 1024,9 hPa 0,0 l/m 0,0 km/h (0 Bft) W 270 -1,6 C 0,0 C 0,0 km/h (0 Bft)
25.10.2021 08:40 25,7 C -0,1 C -0,1 C -5,0 C 36 % 89 % 87 % 1025,1 hPa 0,0 l/m 0,0 km/h (0 Bft) W 270 -1,7 C -0,1 C 0,0 km/h (0 Bft)
25.10.2021 08:38 25,7 C -0,4 C -0,1 C -5,0 C 36 % 89 % 87 % 1025,1 hPa 0,0 l/m 0,0 km/h (0 Bft) W 270 -2,0 C -0,4 C 0,0 km/h (0 Bft)
25.10.2021 08:36 25,7 C -0,6 C 0,0 C -4,8 C 36 % 89 % 87 % 1025,1 hPa 0,0 l/m 0,0 km/h (0 Bft) W 270 -2,2 C -0,6 C 0,0 km/h (0 Bft)
25.10.2021 08:34 25,7 C -1,2 C -0,2 C -4,8 C 36 % 89 % 87 % 1025,1 hPa 0,0 l/m 0,0 km/h (0 Bft) W 270 -2,8 C -1,2 C 0,0 km/h (0 Bft)
25.10.2021 08:32 25,7 C -1,3 C -0,2 C -4,8 C 36 % 89 % 87 % 1025,1 hPa 0,0 l/m 0,0 km/h (0 Bft) W 270 -2,9 C -1,3 C 0,0 km/h (0 Bft)
25.10.2021 08:30 25,7 C -1,6 C -0,2 C -4,8 C 35 % 89 % 87 % 1025,1 hPa 0,0 l/m 0,0 km/h (0 Bft) W 270 -3,2 C -1,6 C 0,0 km/h (0 Bft)
25.10.2021 08:28 25,7 C -1,9 C -0,3 C -4,8 C 35 % 89 % 87 % 1025,1 hPa 0,0 l/m 0,0 km/h (0 Bft) W 270 -3,5 C -1,9 C 0,0 km/h (0 Bft)
25.10.2021 08:26 25,7 C -2,3 C -0,5 C -5,0 C 35 % 88 % 87 % 1025,1 hPa 0,0 l/m 0,0 km/h (0 Bft) W 270 -4,0 C -2,3 C 0,0 km/h (0 Bft)
25.10.2021 08:24 25,7 C -2,6 C -0,7 C -5,0 C 35 % 88 % 87 % 1025,1 hPa 0,0 l/m 0,0 km/h (0 Bft) W 270 -4,3 C -2,6 C 0,0 km/h (0 Bft)
25.10.2021 08:22 25,7 C -2,6 C -0,8 C -5,0 C 35 % 88 % 87 % 1025,1 hPa 0,0 l/m 0,0 km/h (0 Bft) W 270 -4,3 C -2,6 C 0,0 km/h (0 Bft)
25.10.2021 08:20 25,7 C -2,7 C -0,8 C -5,0 C 35 % 88 % 87 % 1025,1 hPa 0,0 l/m 0,0 km/h (0 Bft) W 270 -4,4 C -2,7 C 0,0 km/h (0 Bft)
25.10.2021 08:18 25,6 C -2,8 C -1,0 C -5,0 C 35 % 88 % 87 % 1025,1 hPa 0,0 l/m 0,0 km/h (0 Bft) W 270 -4,5 C -2,8 C 0,0 km/h (0 Bft)
25.10.2021 08:16 25,7 C -2,8 C -1,0 C -5,0 C 35 % 88 % 87 % 1025,1 hPa 0,0 l/m 0,0 km/h (0 Bft) W 270 -4,5 C -2,8 C 0,0 km/h (0 Bft)
25.10.2021 08:14 25,6 C -3,0 C -0,8 C -5,0 C 35 % 88 % 87 % 1025,1 hPa 0,0 l/m 0,0 km/h (0 Bft) W 270 -4,7 C -3,0 C 0,0 km/h (0 Bft)
25.10.2021 08:12 25,7 C -3,0 C -0,7 C -5,0 C 35 % 88 % 87 % 1025,1 hPa 0,0 l/m 0,0 km/h (0 Bft) W 270 -4,7 C -3,0 C 0,0 km/h (0 Bft)
25.10.2021 08:10 25,6 C -3,0 C -0,7 C -5,0 C 35 % 88 % 87 % 1025,1 hPa 0,0 l/m 0,0 km/h (0 Bft) W 270 -4,7 C -3,0 C 0,0 km/h (0 Bft)
25.10.2021 08:08 25,6 C -3,0 C -0,8 C -5,0 C 35 % 88 % 87 % 1025,1 hPa 0,0 l/m 0,0 km/h (0 Bft) W 270 -4,7 C -3,0 C 0,0 km/h (0 Bft)
25.10.2021 08:06 25,7 C -3,0 C -1,0 C -4,8 C 35 % 88 % 87 % 1025,1 hPa 0,0 l/m 0,0 km/h (0 Bft) W 270 -4,7 C -3,0 C 0,0 km/h (0 Bft)
25.10.2021 08:04 25,6 C -3,0 C -1,0 C -5,0 C 35 % 88 % 87 % 1025,1 hPa 0,0 l/m 0,0 km/h (0 Bft) W 270 -4,7 C -3,0 C 0,0 km/h (0 Bft)
25.10.2021 08:02 25,7 C -2,8 C -1,0 C -5,0 C 35 % 88 % 87 % 1025,1 hPa 0,0 l/m 0,0 km/h (0 Bft) W 270 -4,5 C -2,8 C 0,0 km/h (0 Bft)
25.10.2021 08:00 25,6 C -2,8 C -1,0 C -5,0 C 35 % 88 % 87 % 1024,9 hPa 0,0 l/m 0,0 km/h (0 Bft) W 270 -4,5 C -2,8 C 0,0 km/h (0 Bft)
25.10.2021 07:58 25,7 C -2,8 C -1,0 C -5,1 C 35 % 88 % 87 % 1024,9 hPa 0,0 l/m 0,0 km/h (0 Bft) W 270 -4,5 C -2,8 C 0,0 km/h (0 Bft)
25.10.2021 07:56 25,7 C -2,8 C -1,1 C -5,1 C 35 % 88 % 87 % 1024,9 hPa 0,0 l/m 0,0 km/h (0 Bft) W 270 -4,5 C -2,8 C 0,0 km/h (0 Bft)
25.10.2021 07:54 25,7 C -2,8 C -1,2 C -5,1 C 35 % 88 % 87 % 1024,9 hPa 0,0 l/m 0,0 km/h (0 Bft) W 270 -4,5 C -2,8 C 0,0 km/h (0 Bft)
25.10.2021 07:52 25,7 C -2,8 C -1,2 C -5,1 C 35 % 88 % 87 % 1024,9 hPa 0,0 l/m 0,0 km/h (0 Bft) W 270 -4,5 C -2,8 C 0,0 km/h (0 Bft)
25.10.2021 07:50 25,7 C -2,8 C -1,4 C -5,1 C 35 % 88 % 87 % 1024,9 hPa 0,0 l/m 0,0 km/h (0 Bft) W 270 -4,5 C -2,8 C 0,0 km/h (0 Bft)
25.10.2021 07:48 25,7 C -2,8 C -1,5 C -5,1 C 35 % 88 % 87 % 1024,9 hPa 0,0 l/m 0,0 km/h (0 Bft) W 270 -4,5 C -2,8 C 0,0 km/h (0 Bft)
25.10.2021 07:46 25,7 C -2,8 C -1,4 C -5,1 C 35 % 88 % 87 % 1024,9 hPa 0,0 l/m 0,0 km/h (0 Bft) W 270 -4,5 C -2,8 C 0,0 km/h (0 Bft)
25.10.2021 07:44 25,7 C -2,8 C -1,2 C -5,1 C 35 % 88 % 87 % 1024,9 hPa 0,0 l/m 0,0 km/h (0 Bft) W 270 -4,5 C -2,8 C 0,0 km/h (0 Bft)
25.10.2021 07:42 25,7 C -2,8 C -1,0 C -5,1 C 35 % 88 % 87 % 1024,9 hPa 0,0 l/m 0,0 km/h (0 Bft) W 270 -4,5 C -2,8 C 0,0 km/h (0 Bft)
25.10.2021 07:40 25,7 C -2,8 C -0,8 C -5,1 C 35 % 88 % 87 % 1024,7 hPa 0,0 l/m 0,0 km/h (0 Bft) W 270 -4,5 C -2,8 C 0,0 km/h (0 Bft)
25.10.2021 07:38 25,7 C -2,8 C -0,8 C -5,1 C 35 % 88 % 87 % 1024,7 hPa 0,0 l/m 0,0 km/h (0 Bft) W 270 -4,5 C -2,8 C 0,0 km/h (0 Bft)
25.10.2021 07:36 25,7 C -2,8 C -1,0 C -5,1 C 35 % 88 % 87 % 1024,7 hPa 0,0 l/m 0,0 km/h (0 Bft) W 270 -4,5 C -2,8 C 0,0 km/h (0 Bft)
25.10.2021 07:34 25,7 C -2,8 C -1,0 C -5,0 C 35 % 88 % 87 % 1024,7 hPa 0,0 l/m 0,0 km/h (0 Bft) W 270 -4,5 C -2,8 C 0,0 km/h (0 Bft)
25.10.2021 07:32 25,7 C -2,8 C -1,0 C -5,0 C 35 % 88 % 87 % 1024,7 hPa 0,0 l/m 0,0 km/h (0 Bft) W 270 -4,5 C -2,8 C 0,0 km/h (0 Bft)
25.10.2021 07:30 25,8 C -2,8 C -1,0 C -5,0 C 35 % 88 % 87 % 1024,7 hPa 0,0 l/m 0,0 km/h (0 Bft) W 270 -4,5 C -2,8 C 0,0 km/h (0 Bft)
25.10.2021 07:28 25,8 C -3,0 C -1,0 C -5,0 C 35 % 88 % 87 % 1024,7 hPa 0,0 l/m 0,0 km/h (0 Bft) W 270 -4,7 C -3,0 C 0,0 km/h (0 Bft)
25.10.2021 07:26 25,7 C -3,0 C -1,0 C -5,0 C 35 % 87 % 87 % 1024,7 hPa 0,0 l/m 0,0 km/h (0 Bft) W 270 -4,9 C -3,0 C 0,0 km/h (0 Bft)
25.10.2021 07:24 25,8 C -3,0 C -0,8 C -5,0 C 35 % 87 % 87 % 1024,7 hPa 0,0 l/m 0,0 km/h (0 Bft) W 270 -4,9 C -3,0 C 0,0 km/h (0 Bft)
25.10.2021 07:22 25,8 C -3,0 C -1,0 C -4,8 C 35 % 87 % 87 % 1024,7 hPa 0,0 l/m 0,0 km/h (0 Bft) W 270 -4,9 C -3,0 C 0,0 km/h (0 Bft)
25.10.2021 07:20 25,7 C -3,0 C -1,1 C -4,8 C 35 % 87 % 87 % 1024,8 hPa 0,0 l/m 0,0 km/h (0 Bft) W 270 -4,9 C -3,0 C 0,0 km/h (0 Bft)
25.10.2021 07:18 25,8 C -3,0 C -1,0 C -4,8 C 35 % 87 % 87 % 1024,8 hPa 0,0 l/m 0,0 km/h (0 Bft) W 270 -4,9 C -3,0 C 0,0 km/h (0 Bft)
25.10.2021 07:16 25,7 C -2,8 C -1,2 C -4,8 C 35 % 87 % 87 % 1024,8 hPa 0,0 l/m 0,0 km/h (0 Bft) W 270 -4,7 C -2,8 C 0,0 km/h (0 Bft)
25.10.2021 07:14 25,7 C -2,8 C -1,4 C -4,8 C 35 % 87 % 87 % 1024,8 hPa 0,0 l/m 0,0 km/h (0 Bft) W 270 -4,7 C -2,8 C 0,0 km/h (0 Bft)
25.10.2021 07:12 25,7 C -2,8 C -1,5 C -5,0 C 35 % 87 % 87 % 1024,8 hPa 0,0 l/m 0,0 km/h (0 Bft) W 270 -4,7 C -2,8 C 0,0 km/h (0 Bft)
25.10.2021 07:10 25,8 C -2,8 C -1,5 C -4,8 C 35 % 87 % 87 % 1024,8 hPa 0,0 l/m 0,0 km/h (0 Bft) W 270 -4,7 C -2,8 C 0,0 km/h (0 Bft)
25.10.2021 07:08 25,7 C -2,8 C -1,5 C -4,8 C 35 % 87 % 87 % 1024,8 hPa 0,0 l/m 0,0 km/h (0 Bft) W 270 -4,7 C -2,8 C 0,0 km/h (0 Bft)
25.10.2021 07:06 25,7 C -2,8 C -1,5 C -4,8 C 35 % 87 % 87 % 1024,8 hPa 0,0 l/m 0,0 km/h (0 Bft) W 270 -4,7 C -2,8 C 0,0 km/h (0 Bft)
25.10.2021 07:04 25,7 C -2,8 C -1,5 C -4,8 C 35 % 87 % 87 % 1024,8 hPa 0,0 l/m 0,0 km/h (0 Bft) W 270 -4,7 C -2,8 C 0,0 km/h (0 Bft)
25.10.2021 07:02 25,7 C -2,8 C -1,5 C -4,8 C 35 % 87 % 87 % 1024,8 hPa 0,0 l/m 0,0 km/h (0 Bft) W 270 -4,7 C -2,8 C 0,0 km/h (0 Bft)
25.10.2021 07:00 25,7 C -2,8 C -1,5 C -4,8 C 35 % 87 % 87 % 1024,8 hPa 0,0 l/m 0,0 km/h (0 Bft) W 270 -4,7 C -2,8 C 0,0 km/h (0 Bft)
25.10.2021 06:58 25,7 C -2,8 C -1,4 C -4,7 C 35 % 87 % 87 % 1024,8 hPa 0,0 l/m 0,0 km/h (0 Bft) W 270 -4,7 C -2,8 C 0,0 km/h (0 Bft)
25.10.2021 06:56 25,7 C -2,8 C -1,4 C -4,7 C 35 % 87 % 87 % 1024,8 hPa 0,0 l/m 0,0 km/h (0 Bft) W 270 -4,7 C -2,8 C 0,0 km/h (0 Bft)
25.10.2021 06:54 25,8 C -2,8 C -1,4 C -4,7 C 35 % 87 % 87 % 1024,8 hPa 0,0 l/m 0,0 km/h (0 Bft) W 270 -4,7 C -2,8 C 0,0 km/h (0 Bft)
25.10.2021 06:52 25,7 C -2,8 C -1,2 C -4,8 C 35 % 87 % 87 % 1024,8 hPa 0,0 l/m 0,0 km/h (0 Bft) W 270 -4,7 C -2,8 C 0,0 km/h (0 Bft)
25.10.2021 06:50 25,7 C -2,8 C -1,4 C -4,7 C 35 % 87 % 87 % 1024,8 hPa 0,0 l/m 0,0 km/h (0 Bft) W 270 -4,7 C -2,8 C 0,0 km/h (0 Bft)
25.10.2021 06:48 25,7 C -2,8 C -1,5 C -4,7 C 35 % 87 % 87 % 1024,8 hPa 0,0 l/m 0,0 km/h (0 Bft) W 270 -4,7 C -2,8 C 0,0 km/h (0 Bft)
25.10.2021 06:46 25,8 C -2,8 C -1,5 C -4,7 C 35 % 87 % 87 % 1024,8 hPa 0,0 l/m 0,0 km/h (0 Bft) W 270 -4,7 C -2,8 C 0,0 km/h (0 Bft)
25.10.2021 06:44 25,8 C -2,8 C -1,4 C -4,7 C 35 % 87 % 87 % 1024,8 hPa 0,0 l/m 0,0 km/h (0 Bft) W 270 -4,7 C -2,8 C 0,0 km/h (0 Bft)
25.10.2021 06:42 25,7 C -2,8 C -1,2 C -4,6 C 35 % 87 % 87 % 1024,8 hPa 0,0 l/m 0,0 km/h (0 Bft) W 270 -4,7 C -2,8 C 0,0 km/h (0 Bft)
25.10.2021 06:40 25,8 C -2,8 C -1,1 C -4,6 C 35 % 87 % 87 % 1024,9 hPa 0,0 l/m 0,0 km/h (0 Bft) W 270 -4,7 C -2,8 C 0,0 km/h (0 Bft)
25.10.2021 06:38 25,8 C -2,7 C -1,1 C -4,6 C 35 % 87 % 87 % 1024,9 hPa 0,0 l/m 0,0 km/h (0 Bft) W 270 -4,6 C -2,7 C 0,0 km/h (0 Bft)
25.10.2021 06:36 25,8 C -2,7 C -1,0 C -4,6 C 35 % 87 % 87 % 1024,9 hPa 0,0 l/m 0,0 km/h (0 Bft) W 270 -4,6 C -2,7 C 0,0 km/h (0 Bft)
25.10.2021 06:34 25,8 C -2,7 C -0,8 C -4,6 C 35 % 87 % 87 % 1024,9 hPa 0,0 l/m 0,0 km/h (0 Bft) W 270 -4,6 C -2,7 C 0,0 km/h (0 Bft)
25.10.2021 06:32 25,8 C -2,7 C -0,8 C -4,6 C 35 % 87 % 87 % 1024,9 hPa 0,0 l/m 0,0 km/h (0 Bft) W 270 -4,6 C -2,7 C 0,0 km/h (0 Bft)
25.10.2021 06:30 25,8 C -2,7 C -1,1 C -4,6 C 35 % 87 % 87 % 1024,9 hPa 0,0 l/m 0,0 km/h (0 Bft) W 270 -4,6 C -2,7 C 0,0 km/h (0 Bft)
25.10.2021 06:28 25,8 C -2,7 C -1,2 C -4,7 C 35 % 87 % 87 % 1024,9 hPa 0,0 l/m 0,0 km/h (0 Bft) W 270 -4,6 C -2,7 C 0,0 km/h (0 Bft)
25.10.2021 06:26 25,7 C -2,7 C -1,2 C -4,6 C 35 % 87 % 87 % 1024,9 hPa 0,0 l/m 0,0 km/h (0 Bft) W 270 -4,6 C -2,7 C 0,0 km/h (0 Bft)
25.10.2021 06:24 25,8 C -2,7 C -1,2 C -4,6 C 35 % 87 % 87 % 1024,9 hPa 0,0 l/m 0,0 km/h (0 Bft) W-SW 247 -4,6 C -2,7 C 0,0 km/h (0 Bft)
25.10.2021 06:22 25,8 C -2,7 C -1,1 C -4,6 C 35 % 87 % 87 % 1024,9 hPa 0,0 l/m 0,0 km/h (0 Bft) W 270 -4,6 C -2,7 C 0,0 km/h (0 Bft)
25.10.2021 06:20 25,8 C -2,6 C -1,1 C -4,6 C 35 % 87 % 87 % 1025,6 hPa 0,0 l/m 0,0 km/h (0 Bft) W-SW 247 -4,5 C -2,6 C 0,0 km/h (0 Bft)
25.10.2021 06:18 25,8 C -2,6 C -1,1 C -4,6 C 35 % 87 % 87 % 1025,6 hPa 0,0 l/m 0,0 km/h (0 Bft) NW 315 -4,5 C -2,6 C 0,0 km/h (0 Bft)
25.10.2021 06:16 25,8 C -2,6 C -1,2 C -4,7 C 35 % 87 % 87 % 1025,6 hPa 0,0 l/m 0,0 km/h (0 Bft) N-NO 22 -4,5 C -2,6 C 0,0 km/h (0 Bft)
25.10.2021 06:14 25,8 C -2,6 C -1,4 C -4,6 C 35 % 87 % 87 % 1025,6 hPa 0,0 l/m 0,0 km/h (0 Bft) W 270 -4,5 C -2,6 C 0,0 km/h (0 Bft)
25.10.2021 06:12 25,8 C -2,6 C -1,4 C -4,6 C 35 % 87 % 87 % 1025,6 hPa 0,0 l/m 0,0 km/h (0 Bft) W-NW 292 -4,5 C -2,6 C 0,0 km/h (0 Bft)
25.10.2021 06:10 25,8 C -2,6 C -1,4 C -4,6 C 35 % 87 % 87 % 1025,6 hPa 0,0 l/m 0,0 km/h (0 Bft) W 270 -4,5 C -2,6 C 0,0 km/h (0 Bft)
25.10.2021 06:08 25,8 C -2,6 C -1,4 C -4,6 C 35 % 87 % 87 % 1025,6 hPa 0,0 l/m 0,0 km/h (0 Bft) W-NW 292 -4,5 C -2,6 C 0,0 km/h (0 Bft)
25.10.2021 06:06 25,7 C -2,6 C -1,2 C -4,6 C 35 % 87 % 87 % 1025,6 hPa 0,0 l/m 0,0 km/h (0 Bft) S-SW 202 -4,5 C -2,6 C 0,0 km/h (0 Bft)
25.10.2021 06:04 25,8 C -2,6 C -0,8 C -4,6 C 35 % 87 % 87 % 1025,6 hPa 0,0 l/m 0,0 km/h (0 Bft) S-SO 157 -4,5 C -2,6 C 0,0 km/h (0 Bft)
25.10.2021 06:02 25,8 C -2,6 C -0,6 C -4,6 C 35 % 87 % 87 % 1025,6 hPa 0,0 l/m 0,0 km/h (0 Bft) S-SO 157 -4,5 C -2,6 C 0,0 km/h (0 Bft)
25.10.2021 06:00 25,8 C -2,6 C -0,8 C -4,6 C 35 % 87 % 87 % 1025,1 hPa 0,0 l/m 0,0 km/h (0 Bft) NO 45 -4,5 C -2,6 C 0,0 km/h (0 Bft)
25.10.2021 05:58 25,8 C -2,6 C -1,0 C -4,6 C 35 % 87 % 87 % 1025,1 hPa 0,0 l/m 0,0 km/h (0 Bft) O-SO 112 -4,5 C -2,6 C 0,0 km/h (0 Bft)
25.10.2021 05:56 25,8 C -2,6 C -1,0 C -4,6 C 35 % 87 % 87 % 1025,1 hPa 0,0 l/m 0,0 km/h (0 Bft) S 180 -4,5 C -2,6 C 0,0 km/h (0 Bft)
25.10.2021 05:54 25,8 C -2,6 C -0,8 C -4,6 C 35 % 87 % 87 % 1025,1 hPa 0,0 l/m 0,0 km/h (0 Bft) S-SW 202 -4,5 C -2,6 C 0,0 km/h (0 Bft)
25.10.2021 05:52 25,8 C -2,6 C -0,7 C -4,6 C 35 % 87 % 87 % 1025,1 hPa 0,0 l/m 0,0 km/h (0 Bft) S-SO 157 -4,5 C -2,6 C 0,0 km/h (0 Bft)
25.10.2021 05:50 25,8 C -2,6 C -0,5 C -4,6 C 35 % 87 % 87 % 1025,1 hPa 0,0 l/m 0,0 km/h (0 Bft) SW 225 -4,5 C -2,6 C 0,0 km/h (0 Bft)
25.10.2021 05:48 25,8 C -2,4 C -0,6 C -4,6 C 35 % 87 % 87 % 1025,1 hPa 0,0 l/m 0,0 km/h (0 Bft) NO 45 -4,3 C -2,4 C 0,0 km/h (0 Bft)
25.10.2021 05:46 25,8 C -2,4 C -0,8 C -4,6 C 35 % 87 % 87 % 1025,1 hPa 0,0 l/m 0,0 km/h (0 Bft) W-NW 292 -4,3 C -2,4 C 0,0 km/h (0 Bft)
25.10.2021 05:44 25,8 C -2,4 C -1,0 C -4,4 C 35 % 87 % 87 % 1025,1 hPa 0,0 l/m 0,0 km/h (0 Bft) NW 315 -4,3 C -2,4 C 0,0 km/h (0 Bft)
25.10.2021 05:42 25,8 C -2,4 C -1,1 C -4,4 C 35 % 87 % 87 % 1025,1 hPa 0,0 l/m 0,0 km/h (0 Bft) NW 315 -4,3 C -2,4 C 0,0 km/h (0 Bft)
25.10.2021 05:40 25,9 C -2,4 C -1,1 C -4,4 C 35 % 87 % 87 % 1024,9 hPa 0,0 l/m 0,0 km/h (0 Bft) W 270 -4,3 C -2,4 C 0,0 km/h (0 Bft)
25.10.2021 05:38 25,8 C -2,4 C -1,0 C -4,4 C 35 % 87 % 87 % 1024,9 hPa 0,0 l/m 0,0 km/h (0 Bft) NW 315 -4,3 C -2,4 C 0,0 km/h (0 Bft)
25.10.2021 05:36 25,8 C -2,4 C -1,0 C -4,4 C 35 % 87 % 87 % 1024,9 hPa 0,0 l/m 0,0 km/h (0 Bft) N 360 -4,3 C -2,4 C 0,0 km/h (0 Bft)
25.10.2021 05:34 25,8 C -2,4 C -1,0 C -4,4 C 35 % 87 % 87 % 1024,9 hPa 0,0 l/m 0,0 km/h (0 Bft) NO 45 -4,3 C -2,4 C 0,0 km/h (0 Bft)
25.10.2021 05:32 25,8 C -2,4 C -1,1 C -4,4 C 35 % 87 % 87 % 1024,9 hPa 0,0 l/m 0,0 km/h (0 Bft) S-SO 157 -4,3 C -2,4 C 0,0 km/h (0 Bft)
25.10.2021 05:30 25,9 C -2,4 C -1,2 C -4,4 C 35 % 87 % 87 % 1024,9 hPa 0,0 l/m 0,0 km/h (0 Bft) S-SO 157 -4,3 C -2,4 C 0,0 km/h (0 Bft)
25.10.2021 05:28 25,8 C -2,4 C -1,2 C -4,4 C 35 % 87 % 87 % 1024,9 hPa 0,0 l/m 0,0 km/h (0 Bft) S-SW 202 -4,3 C -2,4 C 0,0 km/h (0 Bft)
25.10.2021 05:26 25,9 C -2,6 C -1,2 C -4,4 C 35 % 87 % 87 % 1024,9 hPa 0,0 l/m 0,0 km/h (0 Bft) SW 225 -4,5 C -2,6 C 0,0 km/h (0 Bft)
25.10.2021 05:24 25,9 C -2,6 C -1,0 C -4,4 C 35 % 87 % 87 % 1024,9 hPa 0,0 l/m 0,0 km/h (0 Bft) W 270 -4,5 C -2,6 C 0,0 km/h (0 Bft)
25.10.2021 05:22 25,8 C -2,4 C -0,8 C -4,4 C 35 % 87 % 87 % 1024,9 hPa 0,0 l/m 0,0 km/h (0 Bft) NW 315 -4,3 C -2,4 C 0,0 km/h (0 Bft)
25.10.2021 05:20 25,9 C -2,4 C -0,8 C -4,4 C 35 % 87 % 87 % 1024,9 hPa 0,0 l/m 0,0 km/h (0 Bft) O-SO 112 -4,3 C -2,4 C 0,0 km/h (0 Bft)
25.10.2021 05:18 25,9 C -2,4 C -0,8 C -4,4 C 35 % 87 % 87 % 1024,9 hPa 0,0 l/m 0,0 km/h (0 Bft) S-SO 157 -4,3 C -2,4 C 0,0 km/h (0 Bft)
25.10.2021 05:16 25,9 C -2,4 C -1,0 C -4,3 C 35 % 87 % 87 % 1024,9 hPa 0,0 l/m 0,0 km/h (0 Bft) O 90 -4,3 C -2,4 C 0,0 km/h (0 Bft)
25.10.2021 05:14 25,9 C -2,4 C -1,1 C -4,4 C 35 % 87 % 87 % 1024,9 hPa 0,0 l/m 0,0 km/h (0 Bft) S-SO 157 -4,3 C -2,4 C 0,0 km/h (0 Bft)
25.10.2021 05:12 25,9 C -2,4 C -1,1 C -4,3 C 35 % 87 % 87 % 1024,9 hPa 0,0 l/m 0,0 km/h (0 Bft) S-SO 157 -4,3 C -2,4 C 0,0 km/h (0 Bft)
25.10.2021 05:10 25,9 C -2,4 C -1,1 C -4,3 C 35 % 87 % 87 % 1024,9 hPa 0,0 l/m 0,0 km/h (0 Bft) NO 45 -4,3 C -2,4 C 0,0 km/h (0 Bft)
25.10.2021 05:08 25,9 C -2,4 C -1,1 C -4,3 C 35 % 87 % 87 % 1024,9 hPa 0,0 l/m 0,0 km/h (0 Bft) N 360 -4,3 C -2,4 C 0,0 km/h (0 Bft)
25.10.2021 05:06 25,9 C -2,4 C -1,0 C -4,3 C 35 % 87 % 87 % 1024,9 hPa 0,0 l/m 0,0 km/h (0 Bft) NW 315 -4,3 C -2,4 C 0,0 km/h (0 Bft)
25.10.2021 05:04 25,9 C -2,4 C -1,1 C -4,2 C 35 % 87 % 87 % 1024,9 hPa 0,0 l/m 0,0 km/h (0 Bft) N-NW 337 -4,3 C -2,4 C 0,0 km/h (0 Bft)
25.10.2021 05:02 25,9 C -2,4 C -1,1 C -4,2 C 35 % 87 % 87 % 1024,9 hPa 0,0 l/m 0,2 km/h (0 Bft) W-SW 247 -4,3 C -2,4 C 0,0 km/h (0 Bft)
25.10.2021 05:00 25,9 C -2,4 C -0,8 C -4,2 C 35 % 87 % 87 % 1025,0 hPa 0,0 l/m 0,3 km/h (0 Bft) W-SW 247 -4,3 C -2,4 C 0,0 km/h (0 Bft)
25.10.2021 04:58 25,9 C -2,4 C -0,6 C -4,2 C 35 % 87 % 87 % 1025,0 hPa 0,0 l/m 0,3 km/h (0 Bft) NW 315 -4,3 C -2,4 C 0,0 km/h (0 Bft)
25.10.2021 04:56 25,9 C -2,4 C -0,6 C -4,2 C 35 % 87 % 87 % 1025,0 hPa 0,0 l/m 0,3 km/h (0 Bft) S 180 -4,3 C -2,4 C 0,0 km/h (0 Bft)
25.10.2021 04:54 26,0 C -2,4 C -0,7 C -4,3 C 35 % 87 % 87 % 1025,0 hPa 0,0 l/m 0,3 km/h (0 Bft) S-SO 157 -4,3 C -2,4 C 2,9 km/h (1 Bft)
25.10.2021 04:52 26,0 C -2,4 C -0,7 C -4,2 C 35 % 87 % 87 % 1025,0 hPa 0,0 l/m 0,2 km/h (0 Bft) S-SO 157 -4,3 C -2,4 C 2,9 km/h (1 Bft)
25.10.2021 04:50 25,9 C -2,4 C -0,7 C -4,2 C 35 % 86 % 87 % 1025,0 hPa 0,0 l/m 0,0 km/h (0 Bft) SO 135 -4,4 C -2,4 C 0,0 km/h (0 Bft)
25.10.2021 04:48 25,9 C -2,4 C -1,0 C -4,3 C 35 % 86 % 87 % 1025,0 hPa 0,0 l/m 0,0 km/h (0 Bft) S-SO 157 -4,4 C -2,4 C 0,0 km/h (0 Bft)
25.10.2021 04:46 26,0 C -2,4 C -0,8 C -4,3 C 35 % 86 % 87 % 1025,0 hPa 0,0 l/m 0,2 km/h (0 Bft) S-SO 157 -4,4 C -2,4 C 0,0 km/h (0 Bft)
25.10.2021 04:44 26,0 C -2,3 C -0,7 C -4,3 C 35 % 86 % 87 % 1025,0 hPa 0,0 l/m 0,3 km/h (0 Bft) W-SW 247 -4,3 C -2,3 C 0,0 km/h (0 Bft)
25.10.2021 04:42 26,0 C -2,3 C -0,6 C -4,3 C 35 % 86 % 87 % 1025,0 hPa 0,0 l/m 0,3 km/h (0 Bft) W-NW 292 -4,3 C -2,3 C 0,0 km/h (0 Bft)
25.10.2021 04:40 25,9 C -2,3 C -0,7 C -4,3 C 35 % 86 % 87 % 1025,1 hPa 0,0 l/m 0,3 km/h (0 Bft) NW 315 -4,3 C -2,3 C 0,0 km/h (0 Bft)
25.10.2021 04:38 26,0 C -2,2 C -0,8 C -4,2 C 35 % 86 % 87 % 1025,1 hPa 0,0 l/m 0,3 km/h (0 Bft) W 270 -4,2 C -2,2 C 3,6 km/h (1 Bft)
25.10.2021 04:36 26,0 C -2,2 C -0,8 C -4,2 C 35 % 86 % 87 % 1025,1 hPa 0,0 l/m 0,3 km/h (0 Bft) W-NW 292 -4,2 C -2,2 C 0,0 km/h (0 Bft)
25.10.2021 04:34 26,0 C -2,2 C -0,8 C -4,2 C 35 % 86 % 87 % 1025,1 hPa 0,0 l/m 0,2 km/h (0 Bft) W-NW 292 -4,2 C -2,2 C 2,4 km/h (1 Bft)
25.10.2021 04:32 26,0 C -2,2 C -0,7 C -4,2 C 35 % 86 % 87 % 1025,1 hPa 0,0 l/m 0,2 km/h (0 Bft) W-NW 292 -4,2 C -2,2 C 2,4 km/h (1 Bft)
25.10.2021 04:30 26,0 C -2,2 C -0,7 C -4,2 C 35 % 86 % 87 % 1025,1 hPa 0,0 l/m 0,0 km/h (0 Bft) W-NW 292 -4,2 C -2,2 C 0,0 km/h (0 Bft)
25.10.2021 04:28 26,0 C -2,2 C -0,7 C -4,2 C 35 % 86 % 87 % 1025,1 hPa 0,0 l/m 0,0 km/h (0 Bft) SW 225 -4,2 C -2,2 C 0,0 km/h (0 Bft)
25.10.2021 04:26 25,9 C -2,2 C -0,7 C -4,0 C 35 % 86 % 87 % 1025,1 hPa 0,0 l/m 0,0 km/h (0 Bft) S-SW 202 -4,2 C -2,2 C 0,0 km/h (0 Bft)
25.10.2021 04:24 26,0 C -2,2 C -0,8 C -4,0 C 35 % 86 % 87 % 1025,1 hPa 0,0 l/m 0,0 km/h (0 Bft) S-SW 202 -4,2 C -2,2 C 0,0 km/h (0 Bft)
25.10.2021 04:22 25,9 C -2,2 C -0,8 C -4,0 C 35 % 86 % 87 % 1025,1 hPa 0,0 l/m 0,0 km/h (0 Bft) W-SW 247 -4,2 C -2,2 C 0,0 km/h (0 Bft)
25.10.2021 04:20 25,9 C -2,2 C -0,8 C -4,0 C 35 % 86 % 87 % 1025,1 hPa 0,0 l/m 0,0 km/h (0 Bft) W-NW 292 -4,2 C -2,2 C 0,0 km/h (0 Bft)
25.10.2021 04:18 25,9 C -2,2 C -0,7 C -4,0 C 35 % 86 % 87 % 1025,1 hPa 0,0 l/m 0,0 km/h (0 Bft) NW 315 -4,2 C -2,2 C 0,0 km/h (0 Bft)
25.10.2021 04:16 25,8 C -2,2 C -0,7 C -4,0 C 35 % 86 % 87 % 1025,1 hPa 0,0 l/m 0,0 km/h (0 Bft) W-SW 247 -4,2 C -2,2 C 0,0 km/h (0 Bft)
25.10.2021 04:14 25,9 C -2,2 C -0,7 C -4,0 C 35 % 86 % 87 % 1025,1 hPa 0,0 l/m 0,0 km/h (0 Bft) W-SW 247 -4,2 C -2,2 C 0,0 km/h (0 Bft)
25.10.2021 04:12 25,9 C -2,1 C -0,7 C -4,0 C 35 % 86 % 87 % 1025,1 hPa 0,0 l/m 0,0 km/h (0 Bft) N 360 -4,1 C -2,1 C 0,0 km/h (0 Bft)
25.10.2021 04:10 25,9 C -2,1 C -0,7 C -4,0 C 35 % 86 % 87 % 1025,1 hPa 0,0 l/m 0,2 km/h (0 Bft) NW 315 -4,1 C -2,1 C 0,0 km/h (0 Bft)
25.10.2021 04:08 25,9 C -2,1 C -0,7 C -4,0 C 35 % 86 % 87 % 1025,1 hPa 0,0 l/m 0,2 km/h (0 Bft) S-SO 157 -4,1 C -2,1 C 2,9 km/h (1 Bft)
25.10.2021 04:06 25,9 C -1,9 C -0,7 C -4,0 C 35 % 86 % 87 % 1025,1 hPa 0,0 l/m 0,2 km/h (0 Bft) S-SO 157 -3,9 C -1,9 C 0,0 km/h (0 Bft)
25.10.2021 04:04 25,8 C -1,9 C -0,7 C -4,0 C 35 % 86 % 87 % 1025,1 hPa 0,0 l/m 0,2 km/h (0 Bft) S-SO 157 -3,9 C -1,9 C 0,0 km/h (0 Bft)
25.10.2021 04:02 25,8 C -1,8 C -0,8 C -4,2 C 35 % 86 % 87 % 1025,1 hPa 0,0 l/m 0,2 km/h (0 Bft) W-SW 247 -3,8 C -1,8 C 0,0 km/h (0 Bft)
25.10.2021 04:00 25,9 C -1,8 C -0,8 C -4,2 C 35 % 86 % 87 % 1025,2 hPa 0,0 l/m 0,0 km/h (0 Bft) W-NW 292 -3,8 C -1,8 C 0,0 km/h (0 Bft)
25.10.2021 03:58 25,9 C -1,8 C -1,0 C -4,2 C 35 % 86 % 86 % 1025,2 hPa 0,0 l/m 0,0 km/h (0 Bft) N 360 -3,8 C -1,8 C 0,0 km/h (0 Bft)
25.10.2021 03:56 25,9 C -1,8 C -1,0 C -4,0 C 35 % 86 % 86 % 1025,2 hPa 0,0 l/m 0,0 km/h (0 Bft) W-NW 292 -3,8 C -1,8 C 0,0 km/h (0 Bft)
25.10.2021 03:54 25,9 C -1,8 C -0,8 C -4,0 C 35 % 86 % 86 % 1025,2 hPa 0,0 l/m 0,0 km/h (0 Bft) W 270 -3,8 C -1,8 C 0,0 km/h (0 Bft)
25.10.2021 03:52 25,9 C -1,8 C -0,7 C -3,9 C 35 % 86 % 86 % 1025,2 hPa 0,0 l/m 0,0 km/h (0 Bft) W-SW 247 -3,8 C -1,8 C 0,0 km/h (0 Bft)
25.10.2021 03:50 25,9 C -1,8 C -0,6 C -3,9 C 35 % 86 % 87 % 1025,2 hPa 0,0 l/m 0,0 km/h (0 Bft) SO 135 -3,8 C -1,8 C 0,0 km/h (0 Bft)
25.10.2021 03:48 25,9 C -1,8 C -0,5 C -3,9 C 35 % 86 % 87 % 1025,2 hPa 0,0 l/m 0,0 km/h (0 Bft) O 90 -3,8 C -1,8 C 0,0 km/h (0 Bft)
25.10.2021 03:46 25,9 C -1,8 C -0,5 C -3,8 C 35 % 86 % 87 % 1025,2 hPa 0,0 l/m 0,0 km/h (0 Bft) O-SO 112 -3,8 C -1,8 C 0,0 km/h (0 Bft)
25.10.2021 03:44 25,9 C -1,8 C -0,5 C -3,9 C 35 % 86 % 86 % 1025,2 hPa 0,0 l/m 0,0 km/h (0 Bft) SO 135 -3,8 C -1,8 C 0,0 km/h (0 Bft)
25.10.2021 03:42 25,9 C -1,8 C -0,5 C -3,9 C 35 % 86 % 86 % 1025,2 hPa 0,0 l/m 0,0 km/h (0 Bft) SO 135 -3,8 C -1,8 C 0,0 km/h (0 Bft)
25.10.2021 03:40 25,9 C -1,7 C -0,6 C -4,0 C 35 % 86 % 86 % 1025,4 hPa 0,0 l/m 0,0 km/h (0 Bft) S-SO 157 -3,7 C -1,7 C 0,0 km/h (0 Bft)
25.10.2021 03:38 25,9 C -1,7 C -0,5 C -4,0 C 35 % 86 % 86 % 1025,4 hPa 0,0 l/m 0,0 km/h (0 Bft) S-SW 202 -3,7 C -1,7 C 0,0 km/h (0 Bft)
25.10.2021 03:36 25,9 C -1,6 C -0,6 C -4,0 C 35 % 86 % 86 % 1025,4 hPa 0,0 l/m 0,0 km/h (0 Bft) SW 225 -3,6 C -1,6 C 0,0 km/h (0 Bft)
25.10.2021 03:34 25,9 C -1,6 C -0,5 C -4,0 C 35 % 86 % 86 % 1025,4 hPa 0,0 l/m 0,0 km/h (0 Bft) W 270 -3,6 C -1,6 C 0,0 km/h (0 Bft)
25.10.2021 03:32 26,0 C -1,6 C -0,3 C -4,0 C 35 % 86 % 86 % 1025,4 hPa 0,0 l/m 0,0 km/h (0 Bft) W-NW 292 -3,6 C -1,6 C 0,0 km/h (0 Bft)
25.10.2021 03:30 25,9 C -1,6 C -0,2 C -4,2 C 36 % 86 % 86 % 1025,4 hPa 0,0 l/m 0,0 km/h (0 Bft) N-NW 337 -3,6 C -1,6 C 0,0 km/h (0 Bft)
25.10.2021 03:28 26,0 C -1,6 C -0,1 C -4,2 C 35 % 86 % 86 % 1025,4 hPa 0,0 l/m 0,0 km/h (0 Bft) W-NW 292 -3,6 C -1,6 C 0,0 km/h (0 Bft)
25.10.2021 03:26 25,9 C -1,6 C -0,1 C -4,2 C 36 % 86 % 86 % 1025,4 hPa 0,0 l/m 0,0 km/h (0 Bft) S-SO 157 -3,6 C -1,6 C 0,0 km/h (0 Bft)
25.10.2021 03:24 25,9 C -1,6 C -0,2 C -4,0 C 36 % 86 % 86 % 1025,4 hPa 0,0 l/m 0,0 km/h (0 Bft) S-SO 157 -3,6 C -1,6 C 0,0 km/h (0 Bft)
25.10.2021 03:22 25,9 C -1,6 C -0,2 C -4,0 C 36 % 86 % 86 % 1025,4 hPa 0,0 l/m 0,0 km/h (0 Bft) S-SO 157 -3,6 C -1,6 C 0,0 km/h (0 Bft)
25.10.2021 03:20 26,0 C -1,7 C -0,3 C -3,9 C 36 % 86 % 86 % 1025,6 hPa 0,0 l/m 0,0 km/h (0 Bft) S-SO 157 -3,7 C -1,7 C 0,0 km/h (0 Bft)
25.10.2021 03:18 26,0 C -1,7 C -0,3 C -3,9 C 36 % 86 % 86 % 1025,6 hPa 0,0 l/m 0,0 km/h (0 Bft) S 180 -3,7 C -1,7 C 0,0 km/h (0 Bft)
25.10.2021 03:16 26,0 C -1,7 C -0,5 C -3,9 C 36 % 86 % 86 % 1025,6 hPa 0,0 l/m 0,0 km/h (0 Bft) SW 225 -3,7 C -1,7 C 0,0 km/h (0 Bft)
25.10.2021 03:14 26,0 C -1,7 C -0,5 C -3,9 C 36 % 86 % 86 % 1025,6 hPa 0,0 l/m 0,0 km/h (0 Bft) S-SW 202 -3,7 C -1,7 C 0,0 km/h (0 Bft)
25.10.2021 03:12 26,0 C -1,7 C -0,3 C -3,9 C 36 % 85 % 86 % 1025,6 hPa 0,0 l/m 0,0 km/h (0 Bft) W-SW 247 -3,9 C -1,7 C 0,0 km/h (0 Bft)
25.10.2021 03:10 26,0 C -1,7 C -0,3 C -3,9 C 36 % 85 % 86 % 1025,6 hPa 0,0 l/m 0,0 km/h (0 Bft) S 180 -3,9 C -1,7 C 0,0 km/h (0 Bft)
25.10.2021 03:08 26,0 C -1,7 C -0,3 C -3,9 C 36 % 85 % 86 % 1025,6 hPa 0,0 l/m 0,0 km/h (0 Bft) S-SO 157 -3,9 C -1,7 C 0,0 km/h (0 Bft)
25.10.2021 03:06 26,0 C -1,7 C -0,2 C -3,9 C 36 % 85 % 86 % 1025,6 hPa 0,0 l/m 0,0 km/h (0 Bft) S 180 -3,9 C -1,7 C 0,0 km/h (0 Bft)
25.10.2021 03:04 26,0 C -1,7 C -0,2 C -3,9 C 35 % 85 % 86 % 1025,6 hPa 0,0 l/m 0,0 km/h (0 Bft) SW 225 -3,9 C -1,7 C 0,0 km/h (0 Bft)
25.10.2021 03:02 26,0 C -1,7 C -0,2 C -3,9 C 35 % 85 % 86 % 1025,6 hPa 0,0 l/m 0,0 km/h (0 Bft) S-SW 202 -3,9 C -1,7 C 0,0 km/h (0 Bft)
25.10.2021 03:00 26,0 C -1,7 C -0,3 C -3,9 C 35 % 85 % 86 % 1025,7 hPa 0,0 l/m 0,0 km/h (0 Bft) S-SW 202 -3,9 C -1,7 C 0,0 km/h (0 Bft)
25.10.2021 02:58 26,0 C -1,7 C -0,5 C -3,9 C 35 % 85 % 86 % 1025,7 hPa 0,0 l/m 0,0 km/h (0 Bft) S-SO 157 -3,9 C -1,7 C 0,0 km/h (0 Bft)
25.10.2021 02:56 26,0 C -1,7 C -0,5 C -3,9 C 35 % 85 % 86 % 1025,7 hPa 0,0 l/m 0,0 km/h (0 Bft) S-SW 202 -3,9 C -1,7 C 0,0 km/h (0 Bft)
25.10.2021 02:54 26,0 C -1,7 C -0,3 C -3,9 C 35 % 85 % 86 % 1025,7 hPa 0,0 l/m 0,0 km/h (0 Bft) W-NW 292 -3,9 C -1,7 C 0,0 km/h (0 Bft)
25.10.2021 02:52 26,0 C -1,6 C -0,3 C -3,9 C 36 % 85 % 86 % 1025,7 hPa 0,0 l/m 0,0 km/h (0 Bft) S-SO 157 -3,8 C -1,6 C 0,0 km/h (0 Bft)
25.10.2021 02:50 26,0 C -1,6 C -0,5 C -3,9 C 35 % 85 % 86 % 1025,7 hPa 0,0 l/m 0,0 km/h (0 Bft) W 270 -3,8 C -1,6 C 0,0 km/h (0 Bft)
25.10.2021 02:48 26,0 C -1,6 C -0,5 C -3,9 C 35 % 85 % 86 % 1025,7 hPa 0,0 l/m 0,0 km/h (0 Bft) W-NW 292 -3,8 C -1,6 C 0,0 km/h (0 Bft)
25.10.2021 02:46 26,0 C -1,6 C -0,6 C -3,9 C 35 % 85 % 86 % 1025,7 hPa 0,0 l/m 0,0 km/h (0 Bft) W-NW 292 -3,8 C -1,6 C 0,0 km/h (0 Bft)
25.10.2021 02:44 26,0 C -1,7 C -0,3 C -3,8 C 35 % 85 % 86 % 1025,7 hPa 0,0 l/m 0,0 km/h (0 Bft) W 270 -3,9 C -1,7 C 0,0 km/h (0 Bft)
25.10.2021 02:42 26,0 C -1,7 C -0,3 C -3,8 C 35 % 85 % 86 % 1025,7 hPa 0,0 l/m 0,0 km/h (0 Bft) W-NW 292 -3,9 C -1,7 C 0,0 km/h (0 Bft)
25.10.2021 02:40 26,0 C -1,7 C -0,2 C -3,8 C 36 % 85 % 86 % 1025,7 hPa 0,0 l/m 0,0 km/h (0 Bft) W-SW 247 -3,9 C -1,7 C 0,0 km/h (0 Bft)
25.10.2021 02:38 26,0 C -1,7 C -0,2 C -3,8 C 36 % 85 % 86 % 1025,7 hPa 0,0 l/m 0,0 km/h (0 Bft) W-SW 247 -3,9 C -1,7 C 0,0 km/h (0 Bft)
25.10.2021 02:36 26,0 C -1,7 C -0,2 C -3,8 C 36 % 85 % 86 % 1025,7 hPa 0,0 l/m 0,0 km/h (0 Bft) SW 225 -3,9 C -1,7 C 0,0 km/h (0 Bft)
25.10.2021 02:34 26,0 C -1,7 C -0,3 C -3,8 C 36 % 85 % 86 % 1025,7 hPa 0,0 l/m 0,0 km/h (0 Bft) SO 135 -3,9 C -1,7 C 0,0 km/h (0 Bft)
25.10.2021 02:32 26,0 C -1,6 C -0,3 C -3,8 C 36 % 85 % 86 % 1025,7 hPa 0,0 l/m 0,0 km/h (0 Bft) SO 135 -3,8 C -1,6 C 0,0 km/h (0 Bft)
25.10.2021 02:30 26,0 C -1,6 C -0,2 C -3,8 C 36 % 85 % 86 % 1025,7 hPa 0,0 l/m 0,0 km/h (0 Bft) S-SO 157 -3,8 C -1,6 C 0,0 km/h (0 Bft)
25.10.2021 02:28 26,0 C -1,6 C -0,2 C -3,6 C 36 % 85 % 86 % 1025,7 hPa 0,0 l/m 0,0 km/h (0 Bft) NO 45 -3,8 C -1,6 C 0,0 km/h (0 Bft)
25.10.2021 02:26 26,0 C -1,6 C -0,2 C -3,6 C 36 % 85 % 86 % 1025,7 hPa 0,0 l/m 0,0 km/h (0 Bft) O-NO 67 -3,8 C -1,6 C 0,0 km/h (0 Bft)
25.10.2021 02:24 26,1 C -1,4 C -0,1 C -3,6 C 36 % 85 % 86 % 1025,7 hPa 0,0 l/m 0,0 km/h (0 Bft) N 360 -3,6 C -1,4 C 0,0 km/h (0 Bft)
25.10.2021 02:22 26,0 C -1,4 C 0,0 C -3,6 C 36 % 85 % 86 % 1025,7 hPa 0,0 l/m 0,0 km/h (0 Bft) S 180 -3,6 C -1,4 C 0,0 km/h (0 Bft)
25.10.2021 02:20 26,0 C -1,4 C 0,0 C -3,6 C 36 % 85 % 86 % 1026,1 hPa 0,0 l/m 0,0 km/h (0 Bft) SO 135 -3,6 C -1,4 C 0,0 km/h (0 Bft)
25.10.2021 02:18 26,0 C -1,3 C 0,0 C -3,6 C 36 % 85 % 86 % 1026,1 hPa 0,0 l/m 0,0 km/h (0 Bft) S-SO 157 -3,5 C -1,3 C 0,0 km/h (0 Bft)
25.10.2021 02:16 26,1 C -1,3 C 0,1 C -3,6 C 36 % 85 % 86 % 1026,1 hPa 0,0 l/m 0,0 km/h (0 Bft) W-SW 247 -3,5 C -1,3 C 0,0 km/h (0 Bft)
25.10.2021 02:14 26,1 C -1,3 C 0,0 C -3,6 C 36 % 85 % 86 % 1026,1 hPa 0,0 l/m 0,0 km/h (0 Bft) N 360 -3,5 C -1,3 C 0,0 km/h (0 Bft)
25.10.2021 02:12 26,0 C -1,3 C -0,3 C -3,5 C 36 % 85 % 86 % 1026,1 hPa 0,0 l/m 0,0 km/h (0 Bft) S 180 -3,5 C -1,3 C 0,0 km/h (0 Bft)
25.10.2021 02:10 26,0 C -1,3 C -0,1 C -3,5 C 35 % 85 % 86 % 1026,1 hPa 0,0 l/m 0,0 km/h (0 Bft) NO 45 -3,5 C -1,3 C 0,0 km/h (0 Bft)
25.10.2021 02:08 26,0 C -1,3 C -0,1 C -3,5 C 35 % 85 % 86 % 1026,1 hPa 0,0 l/m 0,0 km/h (0 Bft) S 180 -3,5 C -1,3 C 0,0 km/h (0 Bft)
25.10.2021 02:06 26,0 C -1,2 C -0,3 C -3,4 C 35 % 85 % 86 % 1026,1 hPa 0,0 l/m 0,0 km/h (0 Bft) SW 225 -3,4 C -1,2 C 0,0 km/h (0 Bft)
25.10.2021 02:04 26,1 C -1,2 C -0,1 C -3,4 C 35 % 85 % 86 % 1026,1 hPa 0,0 l/m 0,0 km/h (0 Bft) W 270 -3,4 C -1,2 C 0,0 km/h (0 Bft)
25.10.2021 02:02 26,0 C -1,2 C -0,1 C -3,4 C 35 % 85 % 86 % 1026,1 hPa 0,0 l/m 0,0 km/h (0 Bft) W 270 -3,4 C -1,2 C 0,0 km/h (0 Bft)
25.10.2021 02:00 26,1 C -1,2 C -0,1 C -3,4 C 35 % 85 % 86 % 1026,1 hPa 0,0 l/m 0,0 km/h (0 Bft) W 270 -3,4 C -1,2 C 0,0 km/h (0 Bft)
25.10.2021 01:58 26,1 C -1,2 C 0,0 C -3,4 C 35 % 85 % 86 % 1026,1 hPa 0,0 l/m 0,0 km/h (0 Bft) NW 315 -3,4 C -1,2 C 0,0 km/h (0 Bft)
25.10.2021 01:56 26,1 C -1,2 C -0,3 C -3,5 C 35 % 84 % 86 % 1026,1 hPa 0,0 l/m 0,0 km/h (0 Bft) NW 315 -3,5 C -1,2 C 0,0 km/h (0 Bft)
25.10.2021 01:54 26,1 C -1,2 C -0,1 C -3,4 C 35 % 84 % 86 % 1026,1 hPa 0,0 l/m 0,0 km/h (0 Bft) W 270 -3,5 C -1,2 C 0,0 km/h (0 Bft)
25.10.2021 01:52 26,1 C -1,2 C 0,0 C -3,4 C 35 % 84 % 86 % 1026,1 hPa 0,0 l/m 0,0 km/h (0 Bft) N-NW 337 -3,5 C -1,2 C 0,0 km/h (0 Bft)
25.10.2021 01:50 26,1 C -1,0 C 0,1 C -3,4 C 35 % 84 % 86 % 1026,1 hPa 0,0 l/m 0,0 km/h (0 Bft) S-SW 202 -3,4 C -1,0 C 0,0 km/h (0 Bft)
25.10.2021 01:48 26,1 C -1,0 C 0,3 C -3,4 C 35 % 84 % 86 % 1026,1 hPa 0,0 l/m 0,0 km/h (0 Bft) O 90 -3,4 C -1,0 C 0,0 km/h (0 Bft)
25.10.2021 01:46 26,1 C -1,0 C 0,2 C -3,4 C 35 % 84 % 86 % 1026,1 hPa 0,0 l/m 0,0 km/h (0 Bft) SO 135 -3,4 C -1,0 C 0,0 km/h (0 Bft)
25.10.2021 01:44 26,1 C -0,9 C 0,3 C -3,4 C 35 % 84 % 86 % 1026,1 hPa 0,0 l/m 0,0 km/h (0 Bft) S 180 -3,3 C -0,9 C 0,0 km/h (0 Bft)
25.10.2021 01:42 26,1 C -0,9 C 0,1 C -3,2 C 35 % 84 % 86 % 1026,1 hPa 0,0 l/m 0,0 km/h (0 Bft) N-NW 337 -3,3 C -0,9 C 0,0 km/h (0 Bft)
25.10.2021 01:40 26,1 C -0,9 C 0,1 C -3,2 C 35 % 84 % 86 % 1026,0 hPa 0,0 l/m 0,0 km/h (0 Bft) W 270 -3,3 C -0,9 C 2,4 km/h (1 Bft)
25.10.2021 01:38 26,1 C -0,9 C 0,1 C -3,2 C 35 % 84 % 86 % 1026,0 hPa 0,0 l/m 0,0 km/h (0 Bft) N-NW 337 -3,3 C -0,9 C 2,4 km/h (1 Bft)
25.10.2021 01:36 26,1 C -0,9 C 0,3 C -3,2 C 35 % 84 % 86 % 1026,0 hPa 0,0 l/m 0,0 km/h (0 Bft) NW 315 -3,3 C -0,9 C 0,0 km/h (0 Bft)
25.10.2021 01:34 26,2 C -0,9 C 0,1 C -3,2 C 35 % 84 % 86 % 1026,0 hPa 0,0 l/m 0,0 km/h (0 Bft) NO 45 -3,3 C -0,9 C 0,0 km/h (0 Bft)
25.10.2021 01:32 26,2 C -0,9 C 0,1 C -3,2 C 35 % 84 % 86 % 1026,0 hPa 0,0 l/m 0,0 km/h (0 Bft) S-SO 157 -3,3 C -0,9 C 0,0 km/h (0 Bft)
25.10.2021 01:30 26,2 C -0,9 C 0,2 C -3,2 C 35 % 84 % 86 % 1026,0 hPa 0,0 l/m 0,0 km/h (0 Bft) S 180 -3,3 C -0,9 C 0,0 km/h (0 Bft)
25.10.2021 01:28 26,2 C -0,9 C 0,1 C -3,2 C 35 % 84 % 85 % 1026,0 hPa 0,0 l/m 0,0 km/h (0 Bft) O-SO 112 -3,3 C -0,9 C 0,0 km/h (0 Bft)
25.10.2021 01:26 26,2 C -0,8 C 0,1 C -3,2 C 35 % 84 % 85 % 1026,0 hPa 0,0 l/m 0,0 km/h (0 Bft) O-NO 67 -3,2 C -0,8 C 0,0 km/h (0 Bft)
25.10.2021 01:24 26,2 C -0,8 C 0,1 C -3,2 C 35 % 84 % 85 % 1026,0 hPa 0,0 l/m 0,0 km/h (0 Bft) W-NW 292 -3,2 C -0,8 C 0,0 km/h (0 Bft)
25.10.2021 01:22 26,2 C -0,8 C 0,3 C -3,1 C 35 % 84 % 85 % 1026,0 hPa 0,0 l/m 0,0 km/h (0 Bft) W 270 -3,2 C -0,8 C 0,0 km/h (0 Bft)
25.10.2021 01:20 26,2 C -0,8 C 0,5 C -3,1 C 35 % 84 % 85 % 1026,4 hPa 0,0 l/m 0,0 km/h (0 Bft) N 360 -3,2 C -0,8 C 0,0 km/h (0 Bft)
25.10.2021 01:18 26,2 C -0,8 C 0,2 C -3,1 C 35 % 84 % 85 % 1026,4 hPa 0,0 l/m 0,0 km/h (0 Bft) N 360 -3,2 C -0,8 C 0,0 km/h (0 Bft)
25.10.2021 01:16 26,2 C -0,6 C 0,2 C -3,0 C 35 % 84 % 85 % 1026,4 hPa 0,0 l/m 0,0 km/h (0 Bft) NO 45 -3,0 C -0,6 C 0,0 km/h (0 Bft)
25.10.2021 01:14 26,2 C -0,6 C 0,2 C -3,0 C 36 % 84 % 85 % 1026,4 hPa 0,0 l/m 0,0 km/h (0 Bft) S 180 -3,0 C -0,6 C 0,0 km/h (0 Bft)
25.10.2021 01:12 26,2 C -0,6 C 0,2 C -3,1 C 35 % 84 % 85 % 1026,4 hPa 0,0 l/m 0,0 km/h (0 Bft) O-SO 112 -3,0 C -0,6 C 0,0 km/h (0 Bft)
25.10.2021 01:10 26,2 C -0,6 C 0,3 C -3,0 C 35 % 84 % 85 % 1026,4 hPa 0,0 l/m 0,0 km/h (0 Bft) S 180 -3,0 C -0,6 C 0,0 km/h (0 Bft)
25.10.2021 01:08 26,2 C -0,5 C 0,6 C -3,0 C 36 % 84 % 85 % 1026,4 hPa 0,0 l/m 0,0 km/h (0 Bft) W-NW 292 -2,9 C -0,5 C 0,0 km/h (0 Bft)
25.10.2021 01:06 26,2 C -0,5 C 0,5 C -3,0 C 36 % 84 % 85 % 1026,4 hPa 0,0 l/m 0,0 km/h (0 Bft) N-NO 22 -2,9 C -0,5 C 0,0 km/h (0 Bft)
25.10.2021 01:04 26,2 C -0,5 C 0,2 C -3,0 C 36 % 84 % 85 % 1026,4 hPa 0,0 l/m 0,0 km/h (0 Bft) NO 45 -2,9 C -0,5 C 0,0 km/h (0 Bft)
25.10.2021 01:02 26,2 C -0,5 C 0,2 C -3,1 C 36 % 84 % 85 % 1026,4 hPa 0,0 l/m 0,0 km/h (0 Bft) S 180 -2,9 C -0,5 C 0,0 km/h (0 Bft)
25.10.2021 01:00 26,2 C -0,5 C 0,2 C -3,1 C 36 % 84 % 85 % 1026,3 hPa 0,0 l/m 0,0 km/h (0 Bft) N-NW 337 -2,9 C -0,5 C 0,0 km/h (0 Bft)
25.10.2021 00:58 26,2 C -0,5 C 0,2 C -3,0 C 36 % 84 % 85 % 1026,3 hPa 0,0 l/m 0,0 km/h (0 Bft) NW 315 -2,9 C -0,5 C 0,0 km/h (0 Bft)
25.10.2021 00:56 26,2 C -0,4 C 0,3 C -3,0 C 36 % 84 % 85 % 1026,3 hPa 0,0 l/m 0,0 km/h (0 Bft) W-NW 292 -2,8 C -0,4 C 0,0 km/h (0 Bft)
25.10.2021 00:54 26,3 C -0,4 C 0,6 C -3,0 C 36 % 84 % 85 % 1026,3 hPa 0,0 l/m 0,0 km/h (0 Bft) W 270 -2,8 C -0,4 C 0,0 km/h (0 Bft)
25.10.2021 00:52 26,3 C -0,4 C 0,5 C -2,8 C 36 % 84 % 85 % 1026,3 hPa 0,0 l/m 0,0 km/h (0 Bft) N 360 -2,8 C -0,4 C 0,0 km/h (0 Bft)
25.10.2021 00:50 26,3 C -0,4 C 0,5 C -2,8 C 36 % 83 % 85 % 1026,3 hPa 0,0 l/m 0,0 km/h (0 Bft) N-NW 337 -2,9 C -0,4 C 0,0 km/h (0 Bft)
25.10.2021 00:48 26,2 C -0,4 C 0,3 C -2,8 C 36 % 83 % 85 % 1026,3 hPa 0,0 l/m 0,0 km/h (0 Bft) W-SW 247 -2,9 C -0,4 C 0,0 km/h (0 Bft)
25.10.2021 00:46 26,3 C -0,4 C 0,6 C -2,8 C 36 % 83 % 85 % 1026,3 hPa 0,0 l/m 0,0 km/h (0 Bft) W-SW 247 -2,9 C -0,4 C 0,0 km/h (0 Bft)
25.10.2021 00:44 26,3 C -0,4 C 0,6 C -2,8 C 36 % 83 % 85 % 1026,3 hPa 0,0 l/m 0,0 km/h (0 Bft) O-SO 112 -2,9 C -0,4 C 0,0 km/h (0 Bft)
25.10.2021 00:42 26,2 C -0,2 C 0,5 C -2,7 C 36 % 83 % 85 % 1026,3 hPa 0,0 l/m 0,0 km/h (0 Bft) S-SO 157 -2,7 C -0,2 C 0,0 km/h (0 Bft)
25.10.2021 00:40 26,2 C -0,2 C 0,6 C -2,7 C 36 % 83 % 85 % 1026,5 hPa 0,0 l/m 0,0 km/h (0 Bft) S 180 -2,7 C -0,2 C 0,0 km/h (0 Bft)
25.10.2021 00:38 26,4 C -0,2 C 0,6 C -2,7 C 36 % 83 % 85 % 1026,5 hPa 0,0 l/m 0,0 km/h (0 Bft) O-NO 67 -2,7 C -0,2 C 0,0 km/h (0 Bft)
25.10.2021 00:36 26,4 C -0,1 C 0,7 C -2,6 C 36 % 83 % 85 % 1026,5 hPa 0,0 l/m 0,0 km/h (0 Bft) SW 225 -2,6 C -0,1 C 0,0 km/h (0 Bft)
25.10.2021 00:34 26,2 C -0,1 C 0,7 C -2,6 C 36 % 83 % 85 % 1026,5 hPa 0,0 l/m 0,0 km/h (0 Bft) N 360 -2,6 C -0,1 C 0,0 km/h (0 Bft)
25.10.2021 00:32 26,2 C -0,1 C 0,6 C -2,6 C 36 % 83 % 85 % 1026,5 hPa 0,0 l/m 0,0 km/h (0 Bft) W-NW 292 -2,6 C -0,1 C 0,0 km/h (0 Bft)
25.10.2021 00:30 26,4 C 0,0 C 0,6 C -2,6 C 36 % 83 % 85 % 1026,5 hPa 0,0 l/m 0,0 km/h (0 Bft) W-SW 247 -2,5 C 0,0 C 0,0 km/h (0 Bft)
25.10.2021 00:28 26,4 C 0,0 C 0,5 C -2,6 C 36 % 83 % 85 % 1026,5 hPa 0,0 l/m 0,0 km/h (0 Bft) SW 225 -2,5 C 0,0 C 0,0 km/h (0 Bft)
25.10.2021 00:26 26,2 C 0,0 C 0,5 C -2,6 C 36 % 83 % 85 % 1026,5 hPa 0,0 l/m 0,0 km/h (0 Bft) W 270 -2,5 C 0,0 C 0,0 km/h (0 Bft)
25.10.2021 00:24 26,2 C 0,0 C 0,6 C -2,6 C 36 % 83 % 85 % 1026,5 hPa 0,0 l/m 0,0 km/h (0 Bft) N 360 -2,5 C 0,0 C 0,0 km/h (0 Bft)
25.10.2021 00:22 26,4 C 0,1 C 0,7 C -2,4 C 36 % 83 % 85 % 1026,5 hPa 0,0 l/m 0,0 km/h (0 Bft) NW 315 -2,4 C 0,1 C 0,0 km/h (0 Bft)
25.10.2021 00:20 26,4 C 0,1 C 0,8 C -2,4 C 36 % 83 % 85 % 1026,8 hPa 0,0 l/m 0,0 km/h (0 Bft) S-SW 202 -2,4 C 0,1 C 0,0 km/h (0 Bft)
25.10.2021 00:18 26,4 C 0,1 C 0,9 C -2,4 C 36 % 83 % 85 % 1026,8 hPa 0,0 l/m 0,0 km/h (0 Bft) SO 135 -2,4 C 0,1 C 0,0 km/h (0 Bft)
25.10.2021 00:16 26,4 C 0,1 C 0,8 C -2,4 C 36 % 83 % 85 % 1026,8 hPa 0,0 l/m 0,0 km/h (0 Bft) S-SO 157 -2,4 C 0,1 C 0,0 km/h (0 Bft)
25.10.2021 00:14 26,4 C 0,1 C 0,8 C -2,4 C 36 % 83 % 85 % 1026,8 hPa 0,0 l/m 0,0 km/h (0 Bft) S-SO 157 -2,4 C 0,1 C 0,0 km/h (0 Bft)
25.10.2021 00:12 26,4 C 0,1 C 0,8 C -2,3 C 36 % 83 % 85 % 1026,8 hPa 0,0 l/m 0,0 km/h (0 Bft) S-SO 157 -2,4 C 0,1 C 0,0 km/h (0 Bft)
25.10.2021 00:10 26,4 C 0,1 C 0,9 C -2,3 C 36 % 83 % 85 % 1026,8 hPa 0,0 l/m 0,0 km/h (0 Bft) SO 135 -2,4 C 0,1 C 0,0 km/h (0 Bft)
25.10.2021 00:08 26,4 C 0,3 C 0,8 C -2,3 C 36 % 83 % 85 % 1026,8 hPa 0,0 l/m 0,0 km/h (0 Bft) NO 45 -2,2 C 0,3 C 0,0 km/h (0 Bft)
25.10.2021 00:06 26,4 C 0,3 C 0,8 C -2,3 C 36 % 83 % 85 % 1026,8 hPa 0,0 l/m 0,0 km/h (0 Bft) S-SO 157 -2,2 C 0,3 C 0,0 km/h (0 Bft)
25.10.2021 00:04 26,4 C 0,3 C 0,8 C -2,3 C 36 % 83 % 84 % 1026,8 hPa 0,0 l/m 0,0 km/h (0 Bft) S-SO 157 -2,2 C 0,3 C 0,0 km/h (0 Bft)
25.10.2021 00:02 26,4 C 0,3 C 0,9 C -2,3 C 36 % 82 % 84 % 1026,8 hPa 0,0 l/m 0,0 km/h (0 Bft) O-SO 112 -2,4 C 0,3 C 0,0 km/h (0 Bft)
25.10.2021 00:00 26,4 C 0,3 C 0,8 C -2,3 C 36 % 82 % 84 % 1026,7 hPa 0,0 l/m 0,0 km/h (0 Bft) O-SO 112 -2,4 C 0,3 C 0,0 km/h (0 Bft)
_ Min-Zeit 08:00 07:18 06:46 07:36 01:10 00:00 00:00 07:22 - 00:00 - - 07:18 07:18 00:00
Minimum _ 25,6 C -3,0 C -1,5 C -5,1 C 35 % 82 % 84 % 1024,7 hPa - 0,0 km/h (0 Bft) - - -4,9 C -3,0 C 0,0 km/h (0 Bft)
_ Max-Zeit 00:00 09:56 09:58 00:00 08:54 09:04 09:22 00:02 00:00 04:36 - - 09:24 09:56 04:38
Maximum _ 26,4 C 3,4 C 5,2 C -2,3 C 37 % 90 % 88 % 1026,8 hPa 0,0 l/m 0,3 km/h
W-NW (0 Bft)
- - 1,5 C 3,4 C 3,6 km/h
W (1 Bft)
Durchschnitt _ 25,9 C -1,3 C -0,2 C -4,0 C 35 % 86 % 87 % 1025,4 hPa #0,0 l/m 0,0 km/h (0 Bft) N - -3,3 C -1,3 C 0,1 km/h (0 Bft)